Powrót do katalogu

STARLINK-34735

AktywnyŁącznośćSSO
NORAD 65072·PAYLOAD·🇺🇸 United States

Wystrzelony Jul 31, 2025 z Vandenberg Space Force Base

Loading…

Następne Przeloty (najbliższe 24 godziny)

TLE

ŚwieżeSource: CelesTrak SupGP

Epoka: Sep 15, 2026, 03:28 UTC

1 65072C 25165S   26258.14493056  .02195600  00000+0  10991+0 0  2583
2 65072  97.2846 329.4251 0001810  85.2910 269.3573 15.16375522    12

Śledź STARLINK-34735 w czasie rzeczywistym z AllMySat

Download on the App Store